TimeCDT,TemperatureF,Dew PointF,Humidity,Sea Level PressureIn,VisibilityMPH,Wind Direction,Wind SpeedMPH,Gust SpeedMPH,PrecipitationIn,Events,Conditions,WindDirDegrees,DateUTC
12:15 AM,46.6,39.4,76,30.05,10.0,South,5.8,-,N/A,,Clear,170,2013-03-15 05:15:00
12:35 AM,47.3,37.9,70,30.04,10.0,South,4.6,-,N/A,,Clear,170,2013-03-15 05:35:00
12:55 AM,46.8,37.6,70,30.03,10.0,South,5.8,-,N/A,,Clear,180,2013-03-15 05:55:00
1:15 AM,46.4,37.0,70,30.02,10.0,South,6.9,-,N/A,,Clear,190,2013-03-15 06:15:00
1:35 AM,47.1,37.2,68,30.01,10.0,South,9.2,-,N/A,,Clear,180,2013-03-15 06:35:00
1:55 AM,48.2,37.0,65,30.00,10.0,South,10.4,-,N/A,,Clear,190,2013-03-15 06:55:00
2:15 AM,48.2,36.9,65,29.99,10.0,South,10.4,-,N/A,,Clear,180,2013-03-15 07:15:00
2:35 AM,47.3,36.7,67,29.98,10.0,South,10.4,-,N/A,,Clear,190,2013-03-15 07:35:00
2:55 AM,46.0,36.5,69,29.97,10.0,South,8.1,-,N/A,,Clear,190,2013-03-15 07:55:00
3:15 AM,45.7,36.5,70,29.96,10.0,SSW,10.4,-,N/A,,Clear,200,2013-03-15 08:15:00
3:35 AM,46.8,36.1,67,29.95,10.0,SSW,12.7,-,N/A,,Clear,200,2013-03-15 08:35:00
4:15 AM,46.2,36.0,67,29.93,10.0,SSW,13.8,-,N/A,,Clear,200,2013-03-15 09:15:00
4:35 AM,45.3,36.0,70,29.91,10.0,SSW,11.5,-,N/A,,Clear,210,2013-03-15 09:35:00
4:55 AM,44.2,35.8,72,29.91,10.0,SSW,12.7,-,N/A,,Clear,210,2013-03-15 09:55:00
5:15 AM,45.9,35.6,67,29.89,10.0,SSW,13.8,-,N/A,,Clear,200,2013-03-15 10:15:00
5:35 AM,45.9,35.8,68,29.87,10.0,SSW,11.5,-,N/A,,Clear,200,2013-03-15 10:35:00
5:55 AM,45.7,36.3,70,29.87,10.0,SSW,12.7,-,N/A,,Clear,200,2013-03-15 10:55:00
6:15 AM,45.1,36.5,72,29.86,10.0,SSW,11.5,-,N/A,,Clear,210,2013-03-15 11:15:00
6:35 AM,45.7,37.0,72,29.86,10.0,SSW,10.4,-,N/A,,Clear,210,2013-03-15 11:35:00
6:55 AM,45.7,37.0,72,29.84,10.0,SW,10.4,-,N/A,,Clear,220,2013-03-15 11:55:00
7:15 AM,43.7,36.9,77,29.84,10.0,SW,11.5,-,N/A,,Clear,220,2013-03-15 12:15:00
7:35 AM,43.2,37.0,79,29.83,10.0,SW,13.8,-,N/A,,Clear,220,2013-03-15 12:35:00
7:55 AM,43.2,37.0,79,29.82,10.0,SW,9.2,-,N/A,,Clear,230,2013-03-15 12:55:00
8:15 AM,44.1,37.6,78,29.82,10.0,WSW,10.4,-,N/A,,Clear,250,2013-03-15 13:15:00
8:35 AM,45.1,38.3,77,29.82,10.0,WSW,12.7,-,N/A,,Clear,240,2013-03-15 13:35:00
8:55 AM,45.7,38.5,76,29.82,10.0,WSW,12.7,-,N/A,,Clear,250,2013-03-15 13:55:00
9:15 AM,46.9,39.4,75,29.81,10.0,West,8.1,-,N/A,,Clear,260,2013-03-15 14:15:00
9:35 AM,50.2,39.7,67,29.81,10.0,West,10.4,-,N/A,,Clear,260,2013-03-15 14:35:00
10:55 AM,59.2,39.7,49,29.80,10.0,WNW,9.2,-,N/A,,Clear,290,2013-03-15 15:55:00
11:15 AM,61.0,39.9,46,29.79,10.0,West,6.9,-,N/A,,Clear,280,2013-03-15 16:15:00
11:35 AM,63.0,40.1,43,29.79,10.0,WNW,5.8,-,N/A,,Clear,300,2013-03-15 16:35:00
11:55 AM,65.1,40.5,40,29.78,10.0,NW,3.5,-,N/A,,Clear,310,2013-03-15 16:55:00
12:15 PM,66.7,40.1,38,29.77,10.0,North,3.5,-,N/A,,Clear,360,2013-03-15 17:15:00
12:35 PM,68.4,40.6,36,29.78,10.0,NNW,3.5,-,N/A,,Clear,340,2013-03-15 17:35:00
12:55 PM,68.4,40.5,36,29.78,10.0,Calm,Calm,-,N/A,,Clear,0,2013-03-15 17:55:00
1:15 PM,68.2,39.7,35,29.78,10.0,Calm,Calm,-,N/A,,Clear,0,2013-03-15 18:15:00
1:35 PM,68.9,40.1,35,29.77,10.0,Calm,Calm,-,N/A,,Clear,0,2013-03-15 18:35:00
1:55 PM,69.1,40.1,35,29.76,10.0,Calm,Calm,-,N/A,,Clear,0,2013-03-15 18:55:00
2:15 PM,69.4,40.5,35,29.75,10.0,Calm,Calm,-,N/A,,Clear,0,2013-03-15 19:15:00
2:35 PM,70.0,41.2,35,29.74,10.0,ENE,4.6,-,N/A,,Clear,60,2013-03-15 19:35:00
2:55 PM,69.3,41.2,36,29.72,10.0,NE,3.5,-,N/A,,Clear,40,2013-03-15 19:55:00
3:15 PM,70.5,42.4,36,29.72,10.0,East,3.5,-,N/A,,Clear,100,2013-03-15 20:15:00
3:35 PM,70.7,41.2,34,29.72,10.0,ESE,3.5,-,N/A,,Clear,110,2013-03-15 20:35:00
3:55 PM,71.4,41.0,33,29.72,10.0,ESE,4.6,-,N/A,,Clear,110,2013-03-15 20:55:00
4:15 PM,71.8,41.7,34,29.71,10.0,Calm,Calm,-,N/A,,Clear,0,2013-03-15 21:15:00
4:35 PM,71.8,41.0,33,29.71,10.0,NE,5.8,-,N/A,,Clear,40,2013-03-15 21:35:00
4:55 PM,71.8,41.9,34,29.71,10.0,NE,3.5,-,N/A,,Clear,50,2013-03-15 21:55:00
5:15 PM,72.0,44.2,37,29.71,10.0,NE,11.5,-,N/A,,Clear,40,2013-03-15 22:15:00
5:35 PM,70.7,44.8,39,29.71,10.0,NE,11.5,-,N/A,,Clear,50,2013-03-15 22:35:00
5:55 PM,69.1,45.1,42,29.71,10.0,NE,13.8,-,N/A,,Clear,50,2013-03-15 22:55:00
6:15 PM,68.0,46.0,45,29.71,10.0,NE,12.7,-,N/A,,Clear,50,2013-03-15 23:15:00
6:35 PM,64.6,50.2,60,29.72,10.0,ENE,12.7,18.4,N/A,,Clear,70,2013-03-15 23:35:00
6:55 PM,62.6,50.0,63,29.72,10.0,ENE,11.5,-,N/A,,Clear,70,2013-03-15 23:55:00
7:15 PM,60.1,50.0,69,29.72,10.0,ENE,10.4,-,N/A,,Clear,60,2013-03-16 00:15:00
7:35 PM,57.0,49.3,75,29.72,10.0,ENE,9.2,-,N/A,,Clear,60,2013-03-16 00:35:00
7:55 PM,54.7,48.0,78,29.74,10.0,NE,6.9,-,N/A,,Clear,50,2013-03-16 00:55:00
8:15 PM,52.7,47.1,81,29.76,10.0,NNE,11.5,-,N/A,,Clear,30,2013-03-16 01:15:00
8:35 PM,51.8,47.3,85,29.79,10.0,North,11.5,-,N/A,,Clear,360,2013-03-16 01:35:00
8:55 PM,51.4,46.9,85,29.80,10.0,North,11.5,-,N/A,,Clear,10,2013-03-16 01:55:00
9:15 PM,52.0,45.1,77,29.80,10.0,NNE,15.0,-,N/A,,Clear,20,2013-03-16 02:15:00
9:35 PM,50.2,44.4,81,29.81,10.0,North,13.8,-,N/A,,Clear,10,2013-03-16 02:35:00
9:55 PM,48.7,43.3,82,29.82,10.0,North,13.8,-,N/A,,Clear,10,2013-03-16 02:55:00
10:15 PM,47.7,42.3,82,29.83,10.0,North,15.0,-,N/A,,Clear,10,2013-03-16 03:15:00
10:35 PM,46.4,41.2,82,29.85,10.0,North,15.0,20.7,N/A,,Clear,10,2013-03-16 03:35:00
10:55 PM,46.0,40.1,80,29.86,10.0,North,19.6,25.3,N/A,,Clear,10,2013-03-16 03:55:00
11:15 PM,44.8,39.6,82,29.86,7.0,North,16.1,-,N/A,,Clear,10,2013-03-16 04:15:00
11:35 PM,43.7,39.2,84,29.86,7.0,North,16.1,-,N/A,,Clear,10,2013-03-16 04:35:00
11:55 PM,43.0,38.7,85,29.86,7.0,North,16.1,-,N/A,,Clear,10,2013-03-16 04:55:00